TIANMU-1 13

Last updated on Mon Jun 22 2026 00:02:46 GMT+0000 (Coordinated Universal Time)

1 58647U 23205C 26172.51256397 .00004285 00000+0 16517-3 0 9999 2 58647 97.3464 194.0296 0005433 323.2905 36.7961 15.26851187138160
UTC large
Height (km)
Speed (km/s)
/
Latitude / Longitude
Inclination (degrees)
Orbital Period (minutes)
Azimuth
Elevation
Range (km)
Doppler Factor

Next 0 passes for location: London (51.5072 / 0.1276)

No passes found over London.
TIANMU-1 13